Location: Zagreb
(45.8000°N, 16.0000°E)
Time: 17:29:36
(UTC+01:00)

Tiros 1 despin weight - Pass Details

Date: 28 January 2020
Orbit: 594 x 642 km, 48.2° (Epoch: 25 February)

Event Time Altitude Azimuth Distance (km) Brightness Sun altitude
Rises 16:33:37 0° 285° (WNW) 2,912 ? 2.5°
Reaches altitude 10° 16:36:24 10° 269° (W) 2,010 ? 2.1°
Maximum altitude 16:39:48 20° 221° (SW) 1,446 ? 1.5°
Drops below altitude 10° 16:43:13 10° 174° (S) 2,017 ? 1.0°
Sets 16:46:01 0° 158° (SSE) 2,926 ? 0.6°
